Location: Shenandoah County Park
(38.9356°N, 78.4524°W)
Time: 23:33:52
(UTC-04:00)

Transit 4A - Pass Details

Date: 12 June 2023
Orbit: 862 x 981 km, 66.8° (Epoch: 02 October)

Event Time Altitude Azimuth Distance (km) Brightness Sun altitude
Rises 22:09:31 0° 333° (NNW) 3,661 12.6 -14.4°
Reaches altitude 10° 22:12:05 10° 336° (NNW) 2,722 11.5 -14.7°
Maximum altitude 22:18:28 70° 60° (ENE) 1,042 8.1 -15.6°
Enters shadow 22:22:30 24° 139° (SE) 1,907 8.9 -16.1°
